[[{"header":{"parameterUnit":"m.s-1","parameterCategory":2,"la1":30.2991,"la2":30.254,"lo1":-89.0895,"lo2":-89.0444,"dy":0.0017,"dx":0.0017,"nx":28,"ny":28,"refTime":"2026-02-10T03:00:00:Z","depth":"0","parameterNumber":2,"parameterNumberName":"U-component_of_CURRENTS"},"data":[0,0,0,0,0,0,0,0,0,0,0,0,0,0,0,0,0,0,0,0,0,0,0,0,0,0,0,0,0,0,0,0,0,0,0,0,0,0,0,0,0,0,0,0,0,0,0,0,0,0,0,0,0,0,0,0,0,0,0.2688,0.2689,0,0.2751,0.2751,0.2752,0.272,0.2719,0.2717,0.2715,0.2751,0.2753,0.2756,0,0,0,0,0,0,0,0,0,0,0,0,0,0.2661,0.2661,0.2688,0.2689,0.269,0.275,0.2751,0.2752,0.272,0.2718,0.2716,0.2715,0.275,0.2753,0.2756,0,0,0,0,0,0,0,0,0,0,0,0,0,0.2693,0.2661,0.2688,0.2681,0.2681,0.275,0.2751,0.2752,0.2721,0.2718,0.2716,0.2714,0.2749,0.2753,0.2756,0.2828,0,0,0.2768,0.2769,0,0,0,0,0,0,0,0,0.2691,0.2694,0.2681,0.2682,0.2682,0.2725,0.2755,0.2777,0.2721,0.2706,0.2715,0.2712,0.2742,0.2746,0.2763,0.283,0.2832,0.2768,0.277,0.2772,0.2773,0,0,0,0,0,0,0,0.2689,0.2692,0.2713,0.2682,0.2683,0.2716,0.2717,0.276,0.2736,0.2707,0.2705,0.2713,0.2741,0.276,0.2764,0.2832,0.2768,0.2771,0.2774,0.2775,0.2992,0.2996,0,0,0,0,0,0,0.2678,0.2689,0.2711,0.2714,0.2681,0.2718,0.2719,0.2714,0.2736,0.2738,0.2715,0.2711,0.2755,0.276,0.2765,0.2908,0.2772,0.2775,0.2778,0.2989,0.2993,0.2997,0,0,0,0,0,0,0.2677,0.2679,0.2708,0.2704,0.271,0.272,0.2715,0.2716,0.2738,0.2743,0.2743,0.2735,0.2753,0.276,0.2828,0.2906,0.2777,0.278,0.2985,0.299,0.2995,0.3158,0,0,0,0,0,0,0.2675,0.2678,0.2696,0.2703,0.271,0.2781,0.2718,0.2719,0.2746,0.2742,0.2761,0.2761,0.2752,0.2823,0.2832,0.2909,0.2783,0.298,0.2987,0.2993,0.3148,0.3168,0.3185,0,0,0,0,0,0.2674,0.2737,0.2696,0.2701,0.2726,0.2785,0.2794,0.2792,0.275,0.2794,0.2796,0.2761,0.287,0.283,0.2839,0.2919,0.2977,0.2985,0.2993,0.314,0.3164,0.3185,0,0,0,0,0,0,0.2781,0.2739,0.2695,0.2751,0.2766,0.278,0.2838,0.2807,0.2844,0.2841,0.2813,0.2818,0.2907,0.2893,0.2847,0.3,0.2916,0.2927,0.3025,0.3048,0.3066,0.3104,0.2786,0,0,0,0,0,0.2797,0.2806,0.2784,0.2836,0.2844,0.2832,0.2859,0.285,0.2871,0.2883,0.2887,0.2905,0.2952,0.2979,0.3016,0.3106,0.3114,0.3161,0.318,0.3196,0.3234,0.3305,0.3334,0.3023,0.3023,0.3023,0,0,0.2861,0.2836,0.2848,0.2855,0.2866,0.2928,0.2845,0.2906,0.2965,0.2886,0.2983,0.2976,0.299,0.3091,0.3129,0.3087,0.3292,0.3206,0.3219,0.3249,0.3316,0.3347,0.3374,0.3029,0.3028,0.3027,0,0,0.2984,0.2961,0.2995,0.3019,0.303,0.3031,0.3046,0.3057,0.3071,0.3149,0.3111,0.3156,0.3215,0.3251,0.3272,0.342,0.3387,0.3418,0.3551,0.362,0.3647,0.367,0.3731,0.3758,0.3428,0.3429,0.3429,0,0.3059,0.3077,0.3034,0.3087,0.3126,0.3078,0.3154,0.3191,0.3225,0.3263,0.3205,0.3306,0.3305,0.3434,0.3481,0.3468,0.349,0.3462,0.3646,0.3669,0.369,0.3746,0.3774,0.3438,0.3437,0.3436,0.3435,0,0.3197,0.322,0.3268,0.3287,0.334,0.341,0.3428,0.3484,0.347,0.3489,0.3588,0.3576,0.3629,0.3637,0.3609,0.3763,0.3726,0.3659,0.3589,0.3731,0.3781,0.3808,0.345,0.3447,0.3444,0.3442,0,0,0.3328,0.3344,0.3357,0.3374,0.3439,0.349,0.3619,0.3704,0.3778,0.3806,0.3901,0.3968,0.3922,0.3944,0.3899,0.3958,0.4117,0.3882,0.3882,0.3944,0.4277,0.4146,0.416,0.4076,0.4081,0.4086,0.4256,0,0.3434,0.351,0.3519,0.3645,0.369,0.372,0.3837,0.3923,0.3966,0.4059,0.4064,0.4135,0.4051,0.4056,0.4116,0.4108,0.4193,0.4078,0.413,0.4132,0.3998,0.4189,0.3931,0.4052,0.4281,0.4286,0.4289,0,0.3573,0.3575,0.3681,0.3751,0.3782,0.3871,0.4016,0.4116,0.4254,0.4286,0.4362,0.4348,0.4452,0.4326,0.4444,0.437,0.4365,0.4349,0.4354,0.4197,0.405,0.3945,0.409,0.3973,0.4328,0.4325,0.4322,0,0.366,0.3713,0.3774,0.3813,0.3899,0.3971,0.4035,0.4184,0.4281,0.4426,0.4497,0.4588,0.462,0.4652,0.4611,0.4549,0.4714,0.4613,0.4508,0.4498,0.4274,0.4234,0.4311,0.4738,0.4738,0.4738,0.4737,0,0.3799,0.3847,0.3795,0.386,0.3929,0.4001,0.4148,0.4236,0.439,0.4521,0.4592,0.4688,0.4704,0.4769,0.4724,0.4706,0.4813,0.4596,0.4558,0.4321,0.4285,0.4162,0.4116,0.4744,0.4743,0.4741,0.474,0,0.3943,0.3906,0.3976,0.4003,0.3985,0.4061,0.4173,0.4285,0.443,0.4599,0.4652,0.4813,0.4878,0.4876,0.4925,0.4838,0.4686,0.4793,0.451,0.4434,0.4176,0.4147,0.4094,0.3989,0.4728,0.4726,0.4724,0,0.4017,0.4064,0.406,0.4052,0.406,0.412,0.4163,0.4287,0.4396,0.4659,0.4733,0.4877,0.4915,0.4955,0.4814,0.4744,0.4628,0.4505,0.434,0.4192,0.4134,0.4006,0.3912,0.4121,0.4115,0.411,0.4106,0,0.4191,0.4199,0.4253,0.4155,0.4158,0.419,0.4246,0.4328,0.4498,0.4599,0.4755,0.4814,0.4829,0.4624,0.4538,0.4465,0.4267,0.4394,0.4323,0.3765,0.3552,0.3416,0.3988,0.4059,0.4064,0.4067,0.407,0.4071,0.4332,0.4357,0.4354,0.4254,0.4235,0.4222,0.4228,0.4287,0.4375,0.4426,0.4608,0.4528,0.4436,0.4239,0.4171,0.3869,0.3928,0.3699,0.3714,0.3628,0.341,0.3885,0.3844,0.3847,0.385,0.3853,0.3855,0,0.4415,0.4404,0.439,0.4277,0.4195,0.4184,0.4224,0.4165,0.4132,0.4166,0.4162,0.3949,0.3756,0.3655,0.3375,0.3204,0.3078,0.3131,0.2903,0.2875,0.3364,0.3216,0.2934,0.2934,0.2934,0.2935,0.2935,0.2935,0.4485,0.445,0.4363,0.4173,0.4091,0.3944,0.3931,0.3843,0.3795,0.3527,0.331,0.3259,0.3236,0.3106,0.2844,0.2762,0.2592,0.2432,0.254,0.2876,0.2929,0.298,0.2832,0.2474,0.2474,0.1869,0.1864,0.1861]},{"header":{"parameterUnit":"m.s-1","parameterCategory":2,"la1":30.2991,"la2":30.254,"lo1":-89.0895,"lo2":-89.0444,"dy":0.0017,"dx":0.0017,"nx":28,"ny":28,"refTime":"2026-02-10T03:00:00:Z","depth":"0","parameterNumber":3,"parameterNumberName":"V-component_of_CURRENTS"},"data":[0,0,0,0,0,0,0,0,0,0,0,0,0,0,0,0,0,0,0,0,0,0,0,0,0,0,0,0,0,0,0,0,0,0,0,0,0,0,0,0,0,0,0,0,0,0,0,0,0,0,0,0,0,0,0,0,0,0,0.0385,0.0384,0,0.0351,0.0351,0.035,0.0304,0.0303,0.0302,0.0302,0.0224,0.0222,0.0221,0,0,0,0,0,0,0,0,0,0,0,0,0,0.0346,0.0347,0.0385,0.0384,0.0384,0.0351,0.0351,0.035,0.0304,0.0303,0.0302,0.0301,0.0224,0.0222,0.0221,0,0,0,0,0,0,0,0,0,0,0,0,0,0.0341,0.0347,0.0385,0.0359,0.0356,0.0352,0.0351,0.035,0.0304,0.0303,0.0302,0.0301,0.0225,0.0223,0.022,0.0224,0,0,0.0213,0.0212,0,0,0,0,0,0,0,0,0.0341,0.0342,0.0363,0.036,0.0358,0.0333,0.0309,0.0306,0.0304,0.0321,0.0302,0.0301,0.0258,0.0253,0.0246,0.0221,0.0217,0.0213,0.0212,0.0211,0.021,0,0,0,0,0,0,0,0.0342,0.0343,0.0369,0.0363,0.0359,0.0327,0.0326,0.0308,0.0293,0.032,0.0317,0.0317,0.0256,0.0249,0.0244,0.0216,0.0213,0.0211,0.021,0.0209,0.019,0.019,0,0,0,0,0,0,0.0355,0.0344,0.037,0.0368,0.0349,0.0329,0.0328,0.034,0.0294,0.0287,0.0318,0.0315,0.0253,0.0247,0.0241,0.0263,0.0211,0.0209,0.0207,0.0189,0.019,0.0191,0,0,0,0,0,0,0.0354,0.0358,0.0372,0.0356,0.0356,0.0332,0.0345,0.034,0.0332,0.0293,0.0285,0.0316,0.0252,0.0244,0.0232,0.0259,0.0208,0.0206,0.0188,0.0189,0.019,0.0294,0,0,0,0,0,0,0.0354,0.0358,0.0368,0.0358,0.0357,0.0385,0.0346,0.034,0.0334,0.033,0.0289,0.0281,0.0251,0.0236,0.023,0.0255,0.0204,0.0187,0.0188,0.019,0.029,0.0299,0.0307,0,0,0,0,0,0.0352,0.0383,0.0369,0.0372,0.0374,0.0386,0.0384,0.036,0.0335,0.0346,0.0313,0.0282,0.0241,0.0235,0.0228,0.0253,0.0186,0.0188,0.019,0.0286,0.0297,0.0307,0,0,0,0,0,0,0.0372,0.0381,0.0366,0.0396,0.0394,0.0379,0.0387,0.0367,0.0349,0.0339,0.0294,0.0284,0.0286,0.0252,0.0246,0.025,0.0208,0.0209,0.0284,0.0294,0.0302,0.031,0.0202,0,0,0,0,0,0.0381,0.0405,0.0402,0.0424,0.0427,0.0404,0.0403,0.0389,0.0373,0.0364,0.0336,0.0305,0.0289,0.0277,0.0259,0.026,0.0241,0.027,0.0278,0.0286,0.0286,0.0286,0.0295,0.0197,0.0197,0.0197,0,0,0.0391,0.0401,0.0411,0.0429,0.0422,0.0443,0.0402,0.0411,0.0422,0.0359,0.0364,0.0337,0.0296,0.0303,0.03,0.0277,0.0307,0.0288,0.0295,0.0291,0.0289,0.0299,0.0308,0.0198,0.0198,0.0198,0,0,0.0428,0.0436,0.0463,0.0476,0.0479,0.0472,0.0479,0.047,0.0459,0.0462,0.0421,0.0408,0.0382,0.0364,0.0348,0.0389,0.0356,0.0383,0.0431,0.0432,0.044,0.0447,0.0456,0.0463,0.0384,0.0384,0.0385,0,0.0436,0.047,0.0472,0.0506,0.0516,0.0492,0.0518,0.0517,0.0503,0.0495,0.0477,0.0443,0.0413,0.0414,0.0429,0.0411,0.0406,0.0399,0.0445,0.0451,0.0457,0.0463,0.047,0.039,0.0389,0.0389,0.0388,0,0.0491,0.0518,0.054,0.0572,0.0589,0.061,0.0612,0.0618,0.0599,0.0585,0.0581,0.0545,0.0518,0.0516,0.0485,0.0508,0.0493,0.0462,0.0424,0.0473,0.0477,0.0482,0.0397,0.0395,0.0394,0.0392,0,0,0.0506,0.0564,0.057,0.0586,0.0622,0.0638,0.067,0.0678,0.0682,0.0675,0.068,0.0661,0.0628,0.0608,0.0572,0.0575,0.0618,0.0541,0.0538,0.0559,0.0633,0.0599,0.06,0.0599,0.06,0.0601,0.0628,0,0.0537,0.0598,0.0626,0.0678,0.0701,0.0711,0.074,0.0748,0.0738,0.0743,0.0713,0.0706,0.0667,0.0655,0.0655,0.063,0.0632,0.0614,0.0572,0.0571,0.0543,0.0604,0.0575,0.0594,0.0632,0.0633,0.0633,0,0.057,0.0606,0.0656,0.0707,0.072,0.0755,0.0779,0.0804,0.0812,0.0804,0.0797,0.077,0.0778,0.073,0.0725,0.0719,0.0681,0.0659,0.0659,0.059,0.0545,0.0545,0.06,0.0458,0.064,0.0639,0.0639,0,0.0547,0.0623,0.0655,0.0678,0.0739,0.0762,0.0793,0.0813,0.0832,0.0842,0.0858,0.0845,0.0863,0.0819,0.0786,0.0755,0.0784,0.0728,0.0661,0.0658,0.0604,0.0594,0.0521,0.0711,0.0711,0.0711,0.071,0,0.0556,0.0587,0.0648,0.0667,0.0723,0.0758,0.0804,0.0831,0.0859,0.091,0.0884,0.0942,0.089,0.0899,0.0827,0.0784,0.0816,0.0684,0.0666,0.064,0.0634,0.0481,0.0398,0.0712,0.0711,0.0711,0.0711,0,0.0529,0.0564,0.061,0.0678,0.0713,0.0748,0.0838,0.0868,0.0893,0.0964,0.0978,0.1036,0.1077,0.1008,0.0973,0.0859,0.071,0.0761,0.0741,0.0719,0.0485,0.0408,0.031,0.0248,0.0678,0.0677,0.0677,0,0.052,0.0537,0.0619,0.067,0.0711,0.0777,0.0835,0.088,0.0928,0.1046,0.1097,0.1163,0.1264,0.1197,0.1018,0.0884,0.0739,0.071,0.0625,0.0481,0.0384,0.0327,0.0279,0.0606,0.0605,0.0604,0.0603,0,0.0516,0.0537,0.0588,0.0686,0.0758,0.0832,0.0922,0.0973,0.1052,0.1166,0.1349,0.1449,0.1387,0.129,0.1061,0.0932,0.0584,0.0684,0.0543,0.0329,0.0257,0.0186,0.0583,0.0595,0.0596,0.0597,0.0597,0.0597,0.0522,0.0557,0.063,0.0728,0.0812,0.0905,0.0998,0.1117,0.1268,0.1483,0.1555,0.1767,0.1505,0.123,0.1004,0.053,0.0554,0.0369,0.0296,0.0258,0.0168,0.055,0.0529,0.0529,0.053,0.053,0.053,0,0.0541,0.0598,0.0685,0.0801,0.0899,0.0934,0.1081,0.1205,0.1451,0.167,0.1883,0.188,0.155,0.1151,0.0509,0.0189,0.0075,0.0024,-0.0072,-0.0097,0.0251,0.0213,0.0115,0.0115,0.0115,0.0115,0.0115,0.0115,0.0561,0.0643,0.0691,0.0862,0.0956,0.1108,0.121,0.1429,0.1625,0.194,0.2093,0.2177,0.1847,0.0727,-0.0005,-0.0161,-0.0372,-0.0422,-0.0496,-0.0284,-0.0258,-0.0233,-0.0287,-0.0489,-0.049,-0.0819,-0.0823,-0.0825]}],[{"header":{"parameterUnit":"m.s-1","parameterCategory":2,"la1":30.2991,"la2":30.254,"lo1":-89.0895,"lo2":-89.0444,"dy":0.0017,"dx":0.0017,"nx":28,"ny":28,"refTime":"2026-02-10T03:00:00:Z","depth":"2","parameterNumber":2,"parameterNumberName":"U-component_of_CURRENTS"},"data":[0,0,0,0,0,0,0,0,0,0,0,0,0,0,0,0,0,0,0,0,0,0,0,0,0,0,0,0,0,0,0,0,0,0,0,0,0,0,0,0,0,0,0,0,0,0,0,0,0,0,0,0,0,0,0,0,0,0,0.2015,0.2016,0,0.2037,0.2037,0.2037,0.2026,0.2025,0.2025,0.2024,0.206,0.2061,0.2062,0,0,0,0,0,0,0,0,0,0,0,0,0,0.1986,0.1987,0.2015,0.2016,0.2016,0.2037,0.2037,0.2037,0.2026,0.2025,0.2025,0.2024,0.2059,0.2061,0.2062,0,0,0,0,0,0,0,0,0,0,0,0,0,0.2001,0.1987,0.2015,0.2014,0.2014,0.2037,0.2037,0.2037,0.2026,0.2025,0.2024,0.2024,0.2059,0.2061,0.2063,0.2088,0,0,0.2069,0.207,0,0,0,0,0,0,0,0,0.2,0.2002,0.2014,0.2014,0.2015,0.2029,0.204,0.2056,0.2026,0.202,0.2024,0.2023,0.2052,0.2055,0.2058,0.209,0.2091,0.2069,0.207,0.2071,0.2072,0,0,0,0,0,0,0,0.1999,0.2001,0.2022,0.2014,0.2015,0.202,0.2021,0.2043,0.2038,0.202,0.202,0.2025,0.2052,0.2056,0.2059,0.2092,0.2069,0.2071,0.2072,0.2073,0.2188,0.219,0,0,0,0,0,0,0.1999,0.2,0.2022,0.2023,0.2008,0.2021,0.2022,0.2024,0.2038,0.204,0.2026,0.2024,0.2053,0.2056,0.206,0.2136,0.2071,0.2073,0.2074,0.2186,0.2188,0.219,0,0,0,0,0,0,0.1999,0.2001,0.2021,0.2014,0.2017,0.2023,0.2024,0.2025,0.2041,0.2042,0.2044,0.2043,0.2052,0.2057,0.21,0.2135,0.2074,0.2076,0.2184,0.2187,0.2189,0.2259,0,0,0,0,0,0,0.1998,0.2001,0.2012,0.2013,0.2017,0.2049,0.2025,0.2026,0.2045,0.2044,0.2058,0.2059,0.2052,0.2097,0.2102,0.2137,0.2077,0.2182,0.2185,0.2188,0.2254,0.2264,0.2272,0,0,0,0,0,0.1997,0.2014,0.2012,0.2015,0.2029,0.2051,0.2054,0.2054,0.2047,0.2064,0.2076,0.206,0.2122,0.2101,0.2106,0.2142,0.218,0.2184,0.2188,0.2251,0.2262,0.2272,0,0,0,0,0,0,0.2014,0.2015,0.2012,0.2031,0.2047,0.205,0.2068,0.2068,0.209,0.2096,0.2087,0.2091,0.2144,0.2136,0.2112,0.2186,0.2147,0.2153,0.2193,0.2204,0.2212,0.2218,0.2079,0,0,0,0,0,0.2023,0.2034,0.2038,0.2059,0.2065,0.207,0.2082,0.2088,0.2103,0.2112,0.2117,0.2133,0.2164,0.2177,0.22,0.2241,0.2258,0.2267,0.2275,0.2283,0.2292,0.2375,0.2393,0.2204,0.2204,0.2204,0,0,0.2036,0.2041,0.2047,0.2064,0.2073,0.2099,0.2076,0.2107,0.2141,0.2115,0.2162,0.2171,0.2185,0.2233,0.2255,0.223,0.2342,0.2288,0.2294,0.2299,0.2382,0.24,0.2417,0.2207,0.2206,0.2206,0,0,0.2084,0.2072,0.2105,0.2108,0.2133,0.2138,0.2151,0.2165,0.2182,0.2232,0.2224,0.2261,0.2293,0.2312,0.2326,0.24,0.2393,0.2397,0.2441,0.2523,0.2539,0.2554,0.2583,0.26,0.2394,0.2394,0.2394,0,0.2103,0.2127,0.2122,0.2149,0.215,0.2158,0.2189,0.2218,0.2248,0.2257,0.2261,0.2322,0.2339,0.2396,0.2421,0.2423,0.2445,0.2398,0.2535,0.255,0.2564,0.2591,0.2609,0.2398,0.2398,0.2397,0.2397,0,0.2169,0.218,0.2196,0.2224,0.224,0.2258,0.2286,0.2316,0.2335,0.2345,0.2406,0.244,0.2465,0.2484,0.248,0.2572,0.2547,0.2544,0.2509,0.2588,0.261,0.2628,0.2404,0.2402,0.2401,0.24,0,0,0.22,0.2234,0.223,0.2239,0.2263,0.2279,0.2343,0.2376,0.2409,0.2453,0.2509,0.2563,0.2556,0.2574,0.2578,0.2649,0.2769,0.2637,0.264,0.2666,0.2917,0.2826,0.2835,0.2791,0.2795,0.2798,0.2888,0,0.224,0.229,0.2297,0.2332,0.235,0.2352,0.2399,0.2435,0.2476,0.2537,0.258,0.2654,0.2599,0.2647,0.2695,0.2775,0.282,0.2742,0.2837,0.2839,0.2749,0.2855,0.2615,0.2669,0.2904,0.2907,0.2909,0,0.2274,0.2304,0.2344,0.236,0.2365,0.2397,0.2439,0.2486,0.2563,0.2607,0.266,0.2704,0.2809,0.2786,0.2906,0.2858,0.2884,0.293,0.2935,0.2839,0.2781,0.2632,0.2691,0.2938,0.2935,0.2933,0.2931,0,0.2256,0.2311,0.2337,0.2335,0.2381,0.2404,0.2438,0.2497,0.2542,0.2683,0.2736,0.2831,0.293,0.2989,0.3048,0.3004,0.3193,0.3143,0.3065,0.3056,0.2865,0.2834,0.323,0.323,0.323,0.323,0.323,0,0.2233,0.2243,0.2336,0.2324,0.2395,0.2411,0.2466,0.2532,0.2618,0.2672,0.2765,0.287,0.2999,0.3097,0.3112,0.3143,0.3233,0.3097,0.3094,0.2878,0.2849,0.3087,0.307,0.3233,0.3232,0.3232,0.3231,0,0.2145,0.2208,0.2243,0.232,0.238,0.2413,0.2504,0.2536,0.2617,0.2717,0.2785,0.2958,0.3087,0.3147,0.3304,0.323,0.3288,0.3264,0.2978,0.294,0.3068,0.3053,0.3187,0.3185,0.3183,0.3182,0.3181,0,0.2101,0.2114,0.2234,0.2316,0.2352,0.2429,0.2492,0.257,0.2615,0.2755,0.2821,0.2996,0.3071,0.3225,0.322,0.322,0.3274,0.2982,0.2852,0.309,0.3074,0.3062,0.3049,0.2618,0.2612,0.2607,0.2604,0,0.2025,0.206,0.2092,0.2266,0.237,0.2424,0.2518,0.2547,0.2616,0.2697,0.2814,0.2895,0.3018,0.2971,0.2989,0.2952,0.2963,0.2883,0.3265,0.2659,0.2559,0.2541,0.2547,0.2562,0.2566,0.2569,0.2571,0.2573,0.1979,0.2009,0.2101,0.2234,0.2336,0.2373,0.2384,0.2449,0.2496,0.2532,0.2694,0.2706,0.2766,0.2682,0.2605,0.2544,0.2729,0.259,0.2603,0.2621,0.2532,0.2435,0.2395,0.2398,0.2401,0.2403,0.2405,0,0.2015,0.2041,0.2108,0.2207,0.2199,0.2318,0.2379,0.2318,0.2325,0.2396,0.2438,0.2238,0.2216,0.2259,0.2096,0.2078,0.2035,0.1987,0.1914,0.1959,0.1998,0.1875,0.1565,0.1562,0.1559,0.1557,0,0,0.2045,0.2088,0.2091,0.2068,0.2112,0.206,0.2075,0.2037,0.2054,0.1995,0.1993,0.2139,0.2219,0.1874,0.1819,0.1669,0.1797,0.1599,0.2283,0.2245,0.228,0.2366,0.223,0,0,0,0,0]},{"header":{"parameterUnit":"m.s-1","parameterCategory":2,"la1":30.2991,"la2":30.254,"lo1":-89.0895,"lo2":-89.0444,"dy":0.0017,"dx":0.0017,"nx":28,"ny":28,"refTime":"2026-02-10T03:00:00:Z","depth":"2","parameterNumber":3,"parameterNumberName":"V-component_of_CURRENTS"},"data":[0,0,0,0,0,0,0,0,0,0,0,0,0,0,0,0,0,0,0,0,0,0,0,0,0,0,0,0,0,0,0,0,0,0,0,0,0,0,0,0,0,0,0,0,0,0,0,0,0,0,0,0,0,0,0,0,0,0,0.022,0.0219,0,0.0189,0.0189,0.0188,0.0161,0.0161,0.016,0.016,0.0097,0.0096,0.0095,0,0,0,0,0,0,0,0,0,0,0,0,0,0.0191,0.0192,0.022,0.0219,0.0219,0.0189,0.0189,0.0188,0.0161,0.016,0.016,0.016,0.0098,0.0096,0.0094,0,0,0,0,0,0,0,0,0,0,0,0,0,0.0185,0.0193,0.022,0.0203,0.0201,0.0189,0.0189,0.0188,0.0161,0.016,0.016,0.016,0.0099,0.0096,0.0094,0.0086,0,0,0.0087,0.0086,0,0,0,0,0,0,0,0,0.0186,0.0186,0.0206,0.0204,0.0202,0.018,0.0156,0.0153,0.0161,0.0175,0.016,0.016,0.0123,0.0119,0.0112,0.0084,0.0081,0.0087,0.0086,0.0085,0.0084,0,0,0,0,0,0,0,0.0186,0.0187,0.0206,0.0205,0.0203,0.0176,0.0175,0.0155,0.0149,0.0173,0.0172,0.0171,0.0122,0.0114,0.011,0.008,0.0087,0.0085,0.0084,0.0083,0.0042,0.0042,0,0,0,0,0,0,0.0197,0.0188,0.0207,0.0205,0.0195,0.0177,0.0176,0.0186,0.015,0.0145,0.0171,0.017,0.0118,0.0113,0.0108,0.0109,0.0085,0.0083,0.0082,0.0041,0.0042,0.0042,0,0,0,0,0,0,0.0197,0.0199,0.0208,0.0196,0.0196,0.0178,0.0189,0.0186,0.0181,0.0149,0.0143,0.0171,0.0118,0.0111,0.0097,0.0106,0.0082,0.008,0.0041,0.0041,0.0042,0.0104,0,0,0,0,0,0,0.0196,0.02,0.0207,0.0198,0.0197,0.021,0.019,0.0185,0.0182,0.018,0.0147,0.0141,0.0117,0.0101,0.0095,0.0103,0.0078,0.0041,0.0041,0.0042,0.0102,0.0106,0.011,0,0,0,0,0,0.0196,0.021,0.0208,0.021,0.0209,0.0211,0.0208,0.0192,0.0182,0.0186,0.0163,0.0142,0.0099,0.0099,0.0092,0.01,0.0041,0.0041,0.0042,0.01,0.0105,0.011,0,0,0,0,0,0,0.0193,0.0208,0.0206,0.0222,0.0221,0.0207,0.0206,0.0198,0.0183,0.0179,0.0146,0.0139,0.0129,0.0105,0.0106,0.0088,0.0065,0.0065,0.0112,0.0117,0.0121,0.0134,0.0076,0,0,0,0,0,0.02,0.022,0.0221,0.0232,0.0234,0.0221,0.0218,0.0212,0.0199,0.0192,0.0171,0.0145,0.0125,0.0115,0.0093,0.0085,0.0063,0.0084,0.0088,0.0092,0.0097,0.0085,0.0089,0.0044,0.0044,0.0043,0,0,0.0199,0.0212,0.022,0.0234,0.0229,0.0243,0.0219,0.0221,0.023,0.0187,0.0188,0.016,0.0126,0.0118,0.0111,0.01,0.0091,0.0093,0.0097,0.0099,0.0086,0.009,0.0094,0.0044,0.0044,0.0044,0,0,0.0217,0.0222,0.0248,0.0255,0.0261,0.0256,0.0262,0.0255,0.0248,0.0246,0.0216,0.0198,0.017,0.0149,0.0134,0.0149,0.0116,0.0139,0.0172,0.0161,0.0165,0.0168,0.0138,0.0138,0.0141,0.0142,0.0142,0,0.0216,0.0254,0.0252,0.0279,0.0291,0.0268,0.0297,0.0285,0.0274,0.0274,0.0255,0.0217,0.0185,0.0177,0.0178,0.016,0.0143,0.0158,0.0168,0.0171,0.0173,0.0142,0.0141,0.0145,0.0144,0.0144,0.0144,0,0.0261,0.0286,0.0299,0.0334,0.0343,0.0361,0.0355,0.0353,0.034,0.0332,0.032,0.0276,0.0256,0.0239,0.0211,0.021,0.0188,0.0177,0.0159,0.0182,0.0147,0.0145,0.0149,0.0148,0.0147,0.0146,0,0,0.0279,0.0324,0.0331,0.0362,0.0378,0.0396,0.0404,0.0414,0.0437,0.0398,0.0418,0.0363,0.0337,0.0318,0.0278,0.0259,0.0249,0.0227,0.0225,0.0206,0.0213,0.0182,0.0176,0.0245,0.0245,0.0245,0.018,0,0.0318,0.0383,0.0396,0.0453,0.0487,0.0476,0.0495,0.0497,0.0493,0.0503,0.044,0.0447,0.0368,0.0371,0.0332,0.0286,0.0249,0.0267,0.0187,0.0184,0.0161,0.0175,0.0195,0.0138,0.0178,0.0178,0.0177,0,0.0372,0.0409,0.0472,0.0531,0.0546,0.0576,0.0617,0.0633,0.0626,0.0624,0.0596,0.0557,0.0513,0.0453,0.0355,0.0373,0.0291,0.024,0.0236,0.0186,0.015,0.0122,0.0133,0.0174,0.0174,0.0174,0.0175,0,0.041,0.0473,0.0528,0.0546,0.0596,0.0625,0.0656,0.0672,0.0713,0.0712,0.0749,0.0667,0.0658,0.0544,0.041,0.0394,0.0305,0.0273,0.0155,0.0151,0.0141,0.0136,0.0193,0.0194,0.0194,0.0194,0.0194,0,0.0465,0.0512,0.0553,0.0586,0.0662,0.0682,0.0769,0.0781,0.0828,0.0895,0.0822,0.0861,0.0685,0.0605,0.0455,0.0303,0.0333,0.0162,0.0137,0.016,0.0158,0.0169,0.0167,0.0191,0.0192,0.0192,0.0193,0,0.0518,0.053,0.0598,0.0656,0.0686,0.0743,0.0857,0.093,0.0958,0.1045,0.1056,0.1016,0.0914,0.0718,0.0545,0.0386,0.0235,0.0164,0.019,0.0169,0.007,0.0072,0.0032,0.003,0.0029,0.0028,0.0027,0,0.0549,0.0586,0.0662,0.0704,0.074,0.0832,0.0917,0.0984,0.1073,0.115,0.1206,0.1138,0.1091,0.0816,0.0537,0.0261,0.0225,0.0097,0.006,0.0076,0.0056,0.006,0.0064,0.0064,0.0064,0.0063,0.0063,0,0.0614,0.0636,0.0709,0.0786,0.0871,0.0991,0.1114,0.1197,0.1281,0.1348,0.1423,0.1393,0.1131,0.0866,0.0488,0.0304,0.0141,0.0078,0.011,0.0102,0.0101,0.0083,0.0087,0.0059,0.0059,0.006,0.006,0.006,0.0673,0.0732,0.0809,0.0892,0.0992,0.1138,0.1247,0.1369,0.15,0.1576,0.1552,0.1489,0.1207,0.0714,0.0422,0.0106,0.0112,-0.001,-0.0006,-0.0003,0.0013,0.001,-0.0047,-0.0048,-0.0048,-0.0048,-0.0048,0,0.0728,0.0804,0.0903,0.1019,0.1146,0.1187,0.1373,0.1467,0.1602,0.1635,0.1645,0.1353,0.1072,0.0748,0.0282,0.0007,-0.0009,-0.0082,-0.0036,-0.003,-0.0025,-0.0009,-0.0077,-0.0078,-0.0078,-0.0079,0,0,0.0764,0.0867,0.0925,0.1121,0.122,0.14,0.1503,0.1605,0.1651,0.1653,0.1588,0.1503,0.1138,0.0796,0.0438,0.0182,0.0134,0.0124,0.0174,0.0277,0.0285,0.0041,0.0075,0,0,0,0,0]}],[{"header":{"parameterUnit":"m.s-1","parameterCategory":2,"la1":30.2991,"la2":30.254,"lo1":-89.0895,"lo2":-89.0444,"dy":0.0017,"dx":0.0017,"nx":28,"ny":28,"refTime":"2026-02-10T03:00:00:Z","depth":"4","parameterNumber":2,"parameterNumberName":"U-component_of_CURRENTS"},"data":[0,0,0,0,0,0,0,0,0,0,0,0,0,0,0,0,0,0,0,0,0,0,0,0,0,0,0,0,0,0,0,0,0,0,0,0,0,0,0,0,0,0,0,0,0,0,0,0,0,0,0,0,0,0,0,0,0,0,0.127,0.127,0,0.1289,0.1289,0.1289,0.1314,0.1315,0.1316,0.1316,0.1355,0.1355,0.1356,0,0,0,0,0,0,0,0,0,0,0,0,0,0.1225,0.1225,0.127,0.127,0.1271,0.1289,0.1289,0.1289,0.1314,0.1315,0.1316,0.1317,0.1355,0.1355,0.1356,0,0,0,0,0,0,0,0,0,0,0,0,0,0.1241,0.1225,0.127,0.1287,0.1289,0.1289,0.1289,0.1289,0.1314,0.1315,0.1316,0.1317,0.1355,0.1355,0.1356,0.134,0,0,0.1358,0.1358,0,0,0,0,0,0,0,0,0.124,0.1243,0.1284,0.1286,0.1289,0.1303,0.1288,0.1308,0.1314,0.1302,0.1316,0.1317,0.134,0.1342,0.1339,0.1341,0.1343,0.1358,0.1358,0.1358,0.1359,0,0,0,0,0,0,0,0.1239,0.1242,0.1274,0.1285,0.1287,0.1285,0.1288,0.1291,0.1313,0.1303,0.1305,0.1312,0.1342,0.1339,0.1341,0.1344,0.1358,0.1358,0.1359,0.1359,0.1428,0.143,0,0,0,0,0,0,0.1243,0.1241,0.1274,0.1275,0.127,0.1285,0.1289,0.1295,0.1313,0.1317,0.1311,0.1313,0.1337,0.134,0.1342,0.1407,0.1358,0.1359,0.1359,0.1427,0.1429,0.143,0,0,0,0,0,0,0.1242,0.1246,0.1273,0.1261,0.1265,0.1285,0.1292,0.1295,0.132,0.1319,0.1324,0.1337,0.1338,0.1341,0.1375,0.1406,0.1359,0.136,0.1425,0.1427,0.1429,0.1483,0,0,0,0,0,0,0.1241,0.1245,0.1263,0.1261,0.1266,0.129,0.1291,0.1295,0.1322,0.1326,0.1343,0.1346,0.1339,0.1375,0.1376,0.1406,0.136,0.1423,0.1426,0.1429,0.148,0.1487,0.1494,0,0,0,0,0,0.1239,0.1251,0.1263,0.1268,0.1285,0.1291,0.1293,0.1308,0.1323,0.1335,0.1355,0.1347,0.1393,0.1376,0.1377,0.1408,0.1422,0.1425,0.1428,0.1477,0.1486,0.1493,0,0,0,0,0,0,0.1237,0.1255,0.1268,0.1286,0.1299,0.1297,0.1314,0.1324,0.1347,0.1363,0.1361,0.1365,0.141,0.1401,0.1382,0.1437,0.1408,0.1411,0.1444,0.1452,0.1459,0.1448,0.1361,0,0,0,0,0,0.1246,0.1265,0.1276,0.1294,0.1304,0.1316,0.1326,0.1338,0.1353,0.1365,0.138,0.1399,0.1418,0.143,0.1443,0.1467,0.1476,0.149,0.1497,0.1503,0.1496,0.1554,0.1566,0.1441,0.1441,0.1441,0,0,0.1247,0.1264,0.1273,0.1296,0.1309,0.1324,0.1325,0.135,0.1369,0.1365,0.1408,0.1427,0.1432,0.1466,0.1484,0.1465,0.1544,0.1507,0.1512,0.1502,0.1559,0.1571,0.1582,0.1443,0.1443,0.1442,0,0,0.1253,0.1279,0.1296,0.1309,0.134,0.1349,0.1364,0.1384,0.1404,0.144,0.145,0.1486,0.1511,0.152,0.1527,0.1577,0.1583,0.1592,0.1613,0.1671,0.1681,0.1691,0.172,0.1731,0.159,0.1591,0.1591,0,0.1259,0.1279,0.1301,0.132,0.1334,0.1365,0.138,0.1402,0.1433,0.1451,0.1466,0.1524,0.1533,0.1567,0.1589,0.1592,0.1621,0.158,0.168,0.1689,0.1698,0.1725,0.1737,0.1594,0.1593,0.1593,0.1593,0,0.1268,0.1293,0.1305,0.1341,0.136,0.138,0.141,0.1443,0.148,0.1499,0.1558,0.158,0.1613,0.1628,0.1623,0.1688,0.1688,0.1687,0.1658,0.1714,0.1739,0.1751,0.1598,0.1597,0.1596,0.1595,0,0,0.1248,0.1302,0.1305,0.1325,0.1373,0.1383,0.143,0.1467,0.1506,0.1551,0.1598,0.1638,0.1666,0.1675,0.1688,0.1728,0.1817,0.1738,0.174,0.1763,0.194,0.1811,0.181,0.1849,0.1851,0.1853,0.1933,0,0.1249,0.1278,0.131,0.1342,0.1357,0.1402,0.1441,0.1484,0.1535,0.1593,0.1629,0.1686,0.1681,0.1718,0.176,0.1816,0.185,0.1794,0.1883,0.1884,0.1761,0.182,0.1861,0.1941,0.1944,0.1946,0.1947,0,0.1237,0.1262,0.129,0.1343,0.1356,0.1392,0.1459,0.15,0.1581,0.1627,0.1689,0.1729,0.1801,0.1793,0.1903,0.1878,0.1909,0.1936,0.194,0.1803,0.1776,0.1873,0.1968,0.1966,0.1965,0.1963,0.1962,0,0.1183,0.1241,0.1266,0.1281,0.135,0.1386,0.1434,0.1514,0.1563,0.1663,0.1716,0.18,0.1863,0.1929,0.1988,0.1969,0.2101,0.2082,0.1981,0.1972,0.2039,0.2028,0.2143,0.2143,0.2143,0.2143,0.2142,0,0.1144,0.1162,0.1254,0.1256,0.1309,0.1371,0.1442,0.1499,0.1603,0.1664,0.1742,0.1799,0.1907,0.1986,0.2024,0.2042,0.2138,0.1986,0.1988,0.206,0.205,0.2048,0.2035,0.2146,0.2145,0.2144,0.2144,0,0.1057,0.112,0.1147,0.1236,0.1282,0.1314,0.1444,0.1489,0.16,0.1688,0.1727,0.1839,0.1939,0.2018,0.2129,0.2074,0.2113,0.2086,0.2157,0.2161,0.1931,0.1921,0.1978,0.1975,0.1971,0.1969,0.1966,0,0.1011,0.102,0.1115,0.1155,0.1203,0.1287,0.1347,0.1473,0.1527,0.1693,0.1718,0.185,0.1913,0.1968,0.2052,0.2108,0.2077,0.2062,0.198,0.1921,0.1918,0.1912,0.1907,0.1961,0.196,0.196,0.1959,0,0.0917,0.0961,0.0986,0.107,0.1143,0.1202,0.1302,0.1338,0.1483,0.1606,0.1685,0.1737,0.183,0.19,0.1952,0.1983,0.2059,0.2028,0.2033,0.1956,0.1901,0.1899,0.1898,0.1948,0.1949,0.195,0.1951,0,0.0857,0.0852,0.0912,0.0979,0.106,0.1095,0.1156,0.1245,0.1324,0.1521,0.1549,0.1693,0.1824,0.1835,0.1894,0.1911,0.1871,0.1789,0.1806,0.182,0.1727,0.1632,0.1602,0,0,0,0,0,0.0797,0.0793,0.0832,0.0888,0.0955,0.1009,0.1121,0.1188,0.1346,0.137,0.1464,0.1552,0.1629,0.1696,0.1683,0.1797,0.186,0.1768,0.177,0.1886,0.1899,0.1803,0,0,0,0,0,0,0.0758,0.0781,0.0793,0.0807,0.0833,0.0892,0.0954,0.1054,0.1083,0.1257,0.1317,0.1447,0.1551,0.1637,0.1654,0.1674,0.1637,0.1869,0.1864,0.1878,0.189,0.19,0.1806,0,0,0,0,0]},{"header":{"parameterUnit":"m.s-1","parameterCategory":2,"la1":30.2991,"la2":30.254,"lo1":-89.0895,"lo2":-89.0444,"dy":0.0017,"dx":0.0017,"nx":28,"ny":28,"refTime":"2026-02-10T03:00:00:Z","depth":"4","parameterNumber":3,"parameterNumberName":"V-component_of_CURRENTS"},"data":[0,0,0,0,0,0,0,0,0,0,0,0,0,0,0,0,0,0,0,0,0,0,0,0,0,0,0,0,0,0,0,0,0,0,0,0,0,0,0,0,0,0,0,0,0,0,0,0,0,0,0,0,0,0,0,0,0,0,0.0154,0.0154,0,0.0137,0.0137,0.0137,0.0126,0.0126,0.0126,0.0126,0.0087,0.0086,0.0085,0,0,0,0,0,0,0,0,0,0,0,0,0,0.0133,0.0134,0.0154,0.0154,0.0154,0.0137,0.0137,0.0137,0.0126,0.0126,0.0126,0.0126,0.0087,0.0086,0.0085,0,0,0,0,0,0,0,0,0,0,0,0,0,0.0131,0.0134,0.0154,0.0147,0.0146,0.0137,0.0137,0.0137,0.0126,0.0126,0.0126,0.0126,0.0088,0.0086,0.0085,0.0075,0,0,0.008,0.0079,0,0,0,0,0,0,0,0,0.0131,0.0132,0.0148,0.0147,0.0146,0.0134,0.0115,0.0115,0.0126,0.0133,0.0126,0.0126,0.0101,0.0099,0.0095,0.0073,0.0072,0.008,0.0079,0.0078,0.0078,0,0,0,0,0,0,0,0.0132,0.0132,0.0147,0.0148,0.0147,0.013,0.013,0.0115,0.0116,0.0132,0.0132,0.0131,0.0101,0.0096,0.0094,0.0071,0.008,0.0078,0.0077,0.0077,0.004,0.004,0,0,0,0,0,0,0.0138,0.0133,0.0147,0.0146,0.014,0.013,0.013,0.0138,0.0117,0.0114,0.0131,0.0131,0.0099,0.0095,0.0092,0.0093,0.0078,0.0077,0.0076,0.004,0.004,0.004,0,0,0,0,0,0,0.0137,0.0139,0.0148,0.0139,0.0139,0.0131,0.0139,0.0137,0.0137,0.0116,0.0113,0.0133,0.0099,0.0094,0.0084,0.0091,0.0076,0.0075,0.004,0.004,0.004,0.0086,0,0,0,0,0,0,0.0137,0.014,0.0146,0.014,0.014,0.0149,0.0139,0.0137,0.0137,0.0136,0.0117,0.0113,0.0098,0.0087,0.0083,0.0088,0.0073,0.004,0.004,0.004,0.0084,0.0087,0.009,0,0,0,0,0,0.0136,0.0146,0.0146,0.0148,0.0149,0.0149,0.0147,0.0141,0.0137,0.014,0.0127,0.0114,0.0083,0.0086,0.0081,0.0086,0.0041,0.004,0.004,0.0083,0.0087,0.009,0,0,0,0,0,0,0.0134,0.0146,0.0146,0.0157,0.0156,0.0148,0.0148,0.0145,0.0136,0.0136,0.0116,0.0111,0.0103,0.0086,0.009,0.0074,0.0059,0.0058,0.0093,0.0096,0.0099,0.0112,0.0072,0,0,0,0,0,0.0138,0.0153,0.0154,0.0162,0.0163,0.0157,0.0156,0.0153,0.0145,0.0142,0.013,0.0113,0.0098,0.0092,0.0075,0.0069,0.0044,0.0067,0.007,0.0073,0.0079,0.0049,0.005,0.004,0.004,0.004,0,0,0.0137,0.0147,0.0153,0.0163,0.0161,0.0173,0.0156,0.0159,0.0168,0.0138,0.0144,0.0122,0.0097,0.0091,0.0085,0.0079,0.006,0.0073,0.0075,0.008,0.0049,0.005,0.0051,0.004,0.004,0.004,0,0,0.015,0.0153,0.0173,0.0178,0.0184,0.0182,0.0186,0.0183,0.018,0.018,0.016,0.0143,0.0125,0.0109,0.0098,0.0104,0.0075,0.0098,0.0125,0.0097,0.0098,0.0098,0.006,0.0057,0.0101,0.0101,0.0101,0,0.015,0.018,0.0175,0.0196,0.0208,0.0191,0.0215,0.0206,0.02,0.0201,0.0188,0.0157,0.0134,0.0125,0.0127,0.0111,0.0088,0.0118,0.0101,0.0101,0.0101,0.0062,0.0058,0.0103,0.0103,0.0103,0.0103,0,0.0182,0.0205,0.0215,0.0243,0.0249,0.0265,0.026,0.026,0.0253,0.0246,0.0233,0.0197,0.0182,0.0167,0.015,0.0138,0.0119,0.0108,0.0097,0.0105,0.0063,0.0058,0.0107,0.0106,0.0105,0.0105,0,0,0.0197,0.0233,0.024,0.0267,0.0281,0.0294,0.0302,0.0311,0.0324,0.0296,0.0304,0.0265,0.0243,0.0228,0.0197,0.0169,0.0139,0.0144,0.0141,0.0112,0.007,0.0058,0.005,0.0129,0.0128,0.0128,0.0039,0,0.023,0.0285,0.0293,0.0343,0.0373,0.0364,0.0378,0.0378,0.0369,0.0367,0.0316,0.0311,0.0267,0.0262,0.0225,0.0166,0.0129,0.0164,0.0061,0.0057,0.0051,0.0046,0.0127,0.0035,0.0033,0.0032,0.0032,0,0.0274,0.0308,0.0364,0.0411,0.0423,0.0448,0.0476,0.0487,0.0467,0.0457,0.0429,0.0389,0.0343,0.0304,0.02,0.0226,0.0154,0.0098,0.0093,0.0065,0.0036,0.0025,0.0022,0.0023,0.0023,0.0024,0.0025,0,0.0311,0.0365,0.0416,0.0432,0.047,0.0496,0.0518,0.0519,0.0541,0.0519,0.0524,0.0454,0.0424,0.0329,0.0204,0.0208,0.0078,0.0069,-0.0017,-0.002,-0.0001,-0.0001,-0.001,-0.001,-0.0009,-0.0009,-0.0009,0,0.0357,0.04,0.0441,0.0473,0.0536,0.0547,0.0607,0.0611,0.0624,0.0651,0.058,0.0572,0.0431,0.0335,0.0221,0.0082,0.0087,-0.0014,-0.0041,0.0017,0.0021,-0.0006,-0.0004,-0.0013,-0.0012,-0.0011,-0.0011,0,0.0392,0.0416,0.0483,0.0538,0.056,0.0609,0.0681,0.072,0.072,0.0751,0.0748,0.0662,0.054,0.0381,0.0214,0.0112,-0.0023,-0.0078,-0.0013,-0.0035,-0.0106,-0.0101,-0.0168,-0.0169,-0.017,-0.0171,-0.0172,0,0.0412,0.0448,0.0536,0.058,0.0612,0.0684,0.0735,0.0769,0.0809,0.0804,0.0816,0.0711,0.063,0.0382,0.0213,-0.0018,-0.0053,-0.0132,-0.0111,-0.0102,-0.0121,-0.0115,-0.0109,-0.0173,-0.0173,-0.0174,-0.0174,0,0.0449,0.0483,0.0544,0.0638,0.0708,0.0778,0.0851,0.0892,0.0918,0.0917,0.0872,0.074,0.0593,0.0391,0.0199,0.0037,-0.0081,-0.0142,-0.0141,-0.0122,-0.0109,-0.0126,-0.0119,-0.0177,-0.0177,-0.0176,-0.0176,0,0.0482,0.0531,0.0613,0.0693,0.0776,0.0845,0.0887,0.0926,0.0961,0.095,0.093,0.0769,0.067,0.0418,0.0248,0.0079,0.0044,-0.0011,-0.0018,-0.0016,0.0052,0.0092,0.0064,0,0,0,0,0,0.0508,0.0566,0.0653,0.0742,0.0822,0.0867,0.0946,0.0976,0.1003,0.0982,0.0959,0.082,0.0568,0.0458,0.029,0.023,0.0012,0.0026,-0.0055,-0.0195,-0.0191,-0.0139,0,0,0,0,0,0,0.0526,0.0615,0.0661,0.0759,0.0818,0.0906,0.0962,0.0984,0.0969,0.0966,0.0836,0.0766,0.0523,0.066,0.028,0.0229,0.0152,-0.0093,-0.0097,-0.0197,-0.0194,-0.0191,-0.0136,0,0,0,0,0]}]]